Lake Conroe Weather Center

Moon Phase Calendar



Lake Conroe Water Level
Online Cameras

 


      

Current Conditions in Willis
1/28/2022 10:30:32 AM

49°F
Feels Like 49
Clouds
Humidity
60%
Pressure
30.47"
Wind
2 mph (ENE)
Dew Point
35°F
UV Index
3/10 (Moderate)
Visibility
6 mi

Hourly Forecast

Date & Time Fri, Jan 28
10:00 AM
Fri, Jan 28
11:00 AM
Fri, Jan 28
12:00 PM
Fri, Jan 28
1:00 PM
Fri, Jan 28
2:00 PM
Fri, Jan 28
3:00 PM
Fri, Jan 28
4:00 PM
Fri, Jan 28
5:00 PM
Fri, Jan 28
6:00 PM
Fri, Jan 28
7:00 PM
Fri, Jan 28
8:00 PM
Fri, Jan 28
9:00 PM
Fri, Jan 28
10:00 PM
Fri, Jan 28
11:00 PM
Sat, Jan 29
12:00 AM
Sat, Jan 29
1:00 AM
Sat, Jan 29
2:00 AM
Sat, Jan 29
3:00 AM
Sat, Jan 29
4:00 AM
Sat, Jan 29
5:00 AM
Sat, Jan 29
6:00 AM
Sat, Jan 29
7:00 AM
Sat, Jan 29
8:00 AM
Sat, Jan 29
9:00 AM
Sat, Jan 29
10:00 AM
Sat, Jan 29
11:00 AM
Sat, Jan 29
12:00 PM
Sat, Jan 29
1:00 PM
Sat, Jan 29
2:00 PM
Sat, Jan 29
3:00 PM
Sat, Jan 29
4:00 PM
Sat, Jan 29
5:00 PM
Sat, Jan 29
6:00 PM
Sat, Jan 29
7:00 PM
Sat, Jan 29
8:00 PM
Sat, Jan 29
9:00 PM
Sat, Jan 29
10:00 PM
Sat, Jan 29
11:00 PM
Sun, Jan 30
12:00 AM
Sun, Jan 30
1:00 AM
Sun, Jan 30
2:00 AM
Sun, Jan 30
3:00 AM
Sun, Jan 30
4:00 AM
Sun, Jan 30
5:00 AM
Sun, Jan 30
6:00 AM
Sun, Jan 30
7:00 AM
Sun, Jan 30
8:00 AM
Sun, Jan 30
9:00 AM
Condition
Clouds

Clouds

Clouds

Clouds

Clouds

Clouds

Clear

Clear

Clear

Clear

Clear

Clear

Clear

Clear

Clear

Clear

Clear

Clear

Clear

Clear

Clear

Clear

Clear

Clear

Clear

Clear

Clear

Clear

Clear

Clear

Clear

Clouds

Clouds

Clouds

Clouds

Clouds

Clouds

Clouds

Clouds

Clear

Clear

Clear

Clear

Clear

Clear

Clear

Clear

Clear
Temperature 48°F49°F49°F51°F52°F54°F54°F53°F48°F46°F44°F43°F43°F42°F41°F41°F40°F40°F39°F39°F38°F38°F40°F45°F50°F54°F57°F59°F60°F60°F60°F57°F52°F50°F49°F48°F48°F47°F46°F45°F44°F44°F43°F42°F41°F41°F43°F49°F
Feels Like 43°F43°F44°F48°F49°F50°F51°F49°F45°F43°F41°F40°F40°F39°F41°F41°F40°F40°F37°F36°F36°F35°F37°F43°F47°F51°F54°F56°F57°F57°F57°F54°F49°F47°F46°F45°F44°F43°F42°F41°F40°F40°F39°F38°F38°F37°F40°F46°F
Cloudiness 59%57%55%34%23%11%0%0%0%0%0%0%0%0%0%0%0%0%0%0%0%0%0%0%0%0%0%0%1%2%6%16%22%54%40%46%58%62%63%10%7%6%4%3%3%0%0%0%
Visibility 6 mi6 mi6 mi6 mi6 mi6 mi6 mi6 mi6 mi6 mi6 mi6 mi6 mi6 mi6 mi6 mi6 mi6 mi6 mi6 mi6 mi6 mi6 mi6 mi6 mi6 mi6 mi6 mi6 mi6 mi6 mi6 mi6 mi6 mi6 mi6 mi6 mi6 mi6 mi6 mi6 mi6 mi6 mi6 mi6 mi6 mi6 mi6 mi
Precipitation 0%0%0%0%0%0%0%0%0%0%0%0%0%0%0%0%0%0%0%0%0%0%0%0%0%0%0%0%0%0%0%0%0%0%0%0%0%0%0%0%0%0%0%0%0%0%0%0%
Humidity 58%60%55%49%43%37%34%38%43%47%49%50%50%50%50%50%50%50%51%51%52%53%52%45%39%35%31%29%28%28%30%37%43%47%50%51%50%52%54%56%58%60%63%65%66%68%66%55%
Dew Point 34°F35°F34°F32°F31°F29°F26°F27°F26°F26°F26°F26°F25°F24°F24°F23°F23°F23°F22°F22°F22°F22°F23°F25°F26°F26°F26°F26°F26°F27°F28°F31°F30°F30°F30°F30°F30°F30°F30°F30°F30°F30°F30°F31°F31°F31°F32°F33°F
Pressure 30.47"30.47"30.47"30.47"30.45"30.42"30.39"30.39"30.42"30.42"30.45"30.45"30.47"30.47"30.45"30.45"30.42"30.42"30.42"30.39"30.42"30.42"30.42"30.42"30.42"30.42"30.39"30.33"30.3"30.27"30.24"30.24"30.24"30.24"30.27"30.24"30.24"30.24"30.21"30.21"30.21"30.21"30.18"30.18"30.18"30.21"30.24"30.24"
Wind Speed 13.2 mph13 mph12.6 mph12.7 mph12.9 mph13.1 mph12.6 mph10 mph6.9 mph5.6 mph5.1 mph4.9 mph4.7 mph3.9 mph2.8 mph1.6 mph0.6 mph2.8 mph3.8 mph4 mph3.8 mph3.8 mph3.8 mph4.7 mph5.8 mph6.7 mph7.4 mph7.1 mph7.8 mph8.4 mph8.6 mph6.6 mph5.9 mph6.1 mph6.8 mph7.2 mph8 mph8.2 mph8.3 mph7.8 mph7.6 mph6.9 mph6.2 mph6 mph5.5 mph5.4 mph4.4 mph6.2 mph
Wind
Direction
10°
N

N

N
358°
N
352°
N
351°
N
350°
N
350°
N
352°
N
346°
NNW
340°
NNW
342°
NNW
351°
N
355°
N
16°
NNE

N
259°
W
241°
WSW
244°
WSW
247°
WSW
249°
WSW
244°
WSW
236°
SW
231°
SW
229°
SW
230°
SW
229°
SW
229°
SW
228°
SW
228°
SW
226°
SW
220°
SW
203°
SSW
199°
SSW
206°
SSW
203°
SSW
206°
SSW
203°
SSW
206°
SSW
207°
SSW
213°
SSW
213°
SSW
216°
SW
215°
SW
218°
SW
226°
SW
221°
SW
228°
SW

Daily Forecast

Date High Low Precip. Humidity
Today
Jan 28

Clouds
54 °F
41 °F
0%
55%
Saturday
Jan 29

Clear
60 °F
38 °F
0%
31%
Sunday
Jan 30

Clear
66 °F
41 °F
0%
42%
Monday
Jan 31

Rain
61 °F
55 °F
100%
91%
Tuesday
Feb 1

Rain
68 °F
53 °F
20%
69%
Wednesday
Feb 2

Clouds
73 °F
55 °F
0%
55%
Thursday
Feb 3

Rain
61 °F
25 °F
100%
62%
Friday
Feb 4

Clouds
38 °F
24 °F
0%
28%
Saturday
Feb 5

Clear
46 °F
27 °F
0%
20%
Sunday
Feb 6

Clear
54 °F
31 °F
0%
38%
Monday
Feb 7

Rain
44 °F
41 °F
84%
56%
Tuesday
Feb 8

Rain
42 °F
34 °F
94%
91%
Wednesday
Feb 9

Clouds
47 °F
31 °F
16%
51%
Thursday
Feb 10

Rain
38 °F
35 °F
100%
91%
Friday
Feb 11

Clouds
57 °F
33 °F
10%
54%
Saturday
Feb 12

Clear
64 °F
40 °F
0%
43%

Temperature 8-14 Day Outlook



Precipitation 8-14 Day Outlook




Quick Links
Lake Conroe News
Lake Conroe Photos
Lake Conroe Videos




About Us
Contact Us
Site Map
Search Site
Advertise With Us
   
Conroe.USLakes.info
THE LAKE CONROE WEBSITE

Copyright 2022, Lakes Online
Privacy    |    Legal